This demonstration page uses our WeatherBlox Daily Observations layout. Learn more.

Left ArrowRight Arrow

39.08367, -84.50855

Hourly Observations for March 1, 2015

Temp ( °F °C ) Dew Point ( °F °C ) Humidity (%) Winds ( mph kmh ) Pressure ( in mb ) Visibility ( mi km ) Precip ( " mm )
12:10 am 00:10 Cloudy with Light Snow 25 -4 16 -9 69 69 ENE 3 6 30.56 1035 3 4.82802 N/A
12:19 am 00:19 Cloudy with Light Snow 24 -4.4 18 -7.8 77 77 NE 6 9 30.56 1035 2 3.21868 N/A
12:26 am 00:26 Cloudy with Light Snow 25 -4 18 -8 74 74 NE 6 9 30.56 1035 1.5 2.41401 N/A
12:53 am 00:53 Cloudy with Light Snow 23 -5 20 -6.7 88 88 ENE 5 7 30.53 1034 1.25 2.011675 N/A
1:48 am 01:48 Cloudy with Light Snow 23 -5 21 -6 93 93 N 3 6 30.53 1034 3 4.82802 N/A
1:53 am 01:53 Cloudy with Light Snow 23 -5 21 -6.1 92 92 N N/A 30.51 1033 4 6.43736 N/A
2:12 am 02:12 Cloudy with Light Snow 23 -5 21 -6.1 92 92 N N/A 30.5 1033 2.5 4.02335 N/A
2:20 am 02:20 Cloudy with Light Snow 25 -4 21 -6 86 86 N N/A 30.5 1033 4 6.43736 N/A
2:53 am 02:53 Cloudy with Light Freezing Rain 24 -4.4 22 -5.6 91 91 N N/A 30.47 1032 5 8.0467 0.02 0.508
3:21 am 03:21 Cloudy with Light Snow 24 -4.4 23 -5 96 96 N N/A 30.48 1032 5 8.0467 N/A
3:53 am 03:53 Cloudy with Light Snow 24 -4.4 23 -5 96 96 N N/A 30.44 1031 6 9.65604 N/A
4:53 am 04:53 Cloudy 25 -3.9 24 -4.4 96 96 N N/A 30.44 1031 7 11.26538 N/A
5:53 am 05:53 Cloudy with Light Snow 27 -2.8 24 -4.4 89 89 SW 3 6 30.45 1031 7 11.26538 N/A
6:53 am 06:53 Cloudy 27 -2.8 25 -3.9 92 92 N N/A 30.43 1030 8 12.87472 N/A
7:53 am 07:53 Cloudy with Mist and Fog 28 -2.2 26 -3.3 92 92 N N/A 30.42 1030 4 6.43736 N/A
8:20 am 08:20 Cloudy with Light Snow 28 -2 27 -3 93 93 N N/A 30.45 1031 2 3.21868 N/A
8:53 am 08:53 Cloudy with Light Snow 28 -2.2 26 -3.3 92 92 N N/A 30.42 1030 2 3.21868 0.01 0.254
9:53 am 09:53 Cloudy with Light Snow 29 -1.7 27 -2.8 92 92 N N/A 30.4 1030 3 4.82802 0.01 0.254
10:06 am 10:06 Cloudy with Light Freezing Rain 28 -2 27 -3 93 93 N 3 6 30.42 1030 4 6.43736 N/A
10:53 am 10:53 Cloudy with Light Freezing Drizzle 31 -0.6 28 -2.2 89 89 N N/A 30.39 1029 5 8.0467 N/A
11:53 am 11:53 Cloudy 32 undefined 29 -1.7 88 88 N N/A 30.37 1028 8 12.87472 N/A
12:53 pm 12:53 Cloudy 32 undefined 29 -1.7 88 88 N N/A 30.35 1028 7 11.26538 N/A
1:43 pm 13:43 Cloudy with Light Wintry Mix 32 undefined 30 -1.1 92 92 N N/A 30.33 1027 2.5 4.02335 N/A
1:53 pm 13:53 Cloudy with Mist and Fog 32 undefined 30 -1 93 93 N N/A 30.33 1027 1.75 2.816345 N/A
2:26 pm 14:26 Cloudy with Mist and Fog 32 undefined 32 undefined 100 100 N N/A 30.33 1027 1.25 2.011675 N/A
2:53 pm 14:53 Cloudy with Mist and Fog 32 undefined 32 undefined 100 100 N N/A 30.31 1026 1.25 2.011675 N/A
3:07 pm 15:07 Cloudy with Light Wintry Mix 32 undefined 31 -0.6 96 96 N N/A 30.33 1027 1 1.60934 N/A
3:14 pm 15:14 Cloudy with Mist and Fog 32 undefined 32 undefined 100 100 N N/A 30.33 1027 1 1.60934 N/A
3:53 pm 15:53 Cloudy with Mist and Fog 32 undefined 32 undefined 100 100 N N/A 30.31 1026 1.75 2.816345 N/A
4:28 pm 16:28 Cloudy with Mist and Fog 34 1 30 -1 87 87 SW 6 9 30.3 1026 1.75 2.816345 N/A
4:36 pm 16:36 Cloudy with Mist and Fog 34 1 32 undefined 93 93 SSW 5 7 30.3 1026 1.75 2.816345 N/A
4:53 pm 16:53 Cloudy with Mist and Fog 33 0.6 32 undefined 96 96 WSW 5 7 30.31 1026 2 3.21868 N/A
5:05 pm 17:05 Cloudy with Light Rain 33 0.6 32 undefined 96 96 SSW 5 7 30.3 1026 2 3.21868 N/A
5:53 pm 17:53 Cloudy with Light Wintry Mix 33 0.6 32 undefined 96 96 SW 5 7 30.31 1027 2 3.21868 N/A
6:00 pm 18:00 Cloudy with Light Snow 34 1 32 undefined 93 93 SW 5 7 30.33 1027 2 3.21868 N/A
6:53 pm 18:53 Cloudy 27 -3 12 -11 54 54 NE 7 11 30.59 1036 10 16.0934 N/A
7:53 pm 19:53 Cloudy with Mist and Fog 33 0.6 33 0.6 100 100 N N/A 30.31 1027 2 3.21868 N/A
8:17 pm 20:17 Cloudy with Mist and Fog 33 0.6 32 undefined 96 96 WSW 5 7 30.33 1027 2 3.21868 N/A
8:53 pm 20:53 Cloudy with Mist and Fog 34 1.1 32 undefined 92 92 WNW 7 11 30.32 1027 2 3.21868 N/A
9:00 pm 21:00 Cloudy 34 1 30 -1 87 87 W 3 6 30.33 1027 7 11.26538 N/A
9:53 pm 21:53 Cloudy 34 1.1 31 -0.6 89 89 WSW 3 6 30.32 1027 8 12.87472 N/A
10:08 pm 22:08 Cloudy 34 1 30 -1 87 87 WNW 5 7 30.36 1028 8 12.87472 N/A
10:21 pm 22:21 Cloudy 33 0.6 31 -0.6 92 92 W 5 7 30.36 1028 9 14.48406 N/A
10:31 pm 22:31 Cloudy 33 0.6 31 -0.6 92 92 WNW 6 9 30.36 1028 9 14.48406 N/A
10:53 pm 22:53 Cloudy 33 0.6 29 -1.7 85 85 WNW 8 13 30.35 1028 10 16.0934 N/A
11:53 pm 23:53 Mostly Cloudy 32 undefined 28 -2.2 85 85 NW 13 20 30.36 1028 9 14.48406 N/A

Powered by AerisWeather